SCP
1 1 1 1 1 1 1 1 1 2 2 2 2 3 4 5 5 4 3 3 4 4 4 4 5 5 5 5 5 5 6 8 9 8 7 7 7 8 8 8 8 9 9 9
1 1 2 2 2 2 2 2 2 2 2 2 2 3 4 5 5 4 3 3 4 4 4 4 4 5 5 5 5 5 6 7 8 8 7 7 7 8 9 8 8 9 9 8
1 1 2 2 2 2 2 2 2 2 2 2 2 2 4 4 4 3 3 3 3 4 4 4 4 4 5 5 5 4 5 7 7 7 7 7 7 8 9 8 9 10 9 7
1 1 1 2 2 2 2 2 2 1 1 1 2 2 3 4 4 3 3 3 3 3 3 4 4 4 4 4 4 4 4 5 6 7 7 7 7 8 8 8 8 9 8 6
1 1 1 1 1 1 1 1 1 1 2 2 2 2 2 3 4 3 3 3 4 3 3 4 4 4 4 4 4 3 3 4 6 7 7 7 7 7 7 7 7 6 5 4
0 1 1 1 1 1 1 1 1 1 2 2 2 2 3 4 4 4 3 4 4 4 4 4 4 4 4 4 4 4 3 4 6 7 8 8 8 7 6 6 6 5 3 3
0 1 1 1 1 1 1 1 1 1 2 3 3 3 4 5 5 4 3 4 4 5 5 5 5 5 5 5 5 5 4 5 6 8 8 9 10 8 6 5 4 4 3 3
1 1 1 1 1 1 2 2 2 2 2 3 4 5 5 6 5 4 4 4 5 5 5 5 5 6 7 8 8 7 6 6 7 8 9 10 11 10 7 5 4 3 3 3
1 1 1 1 1 2 2 2 2 2 3 4 5 5 4 5 4 4 3 4 4 5 5 5 6 7 7 9 9 9 8 9 11 12 12 13 13 11 8 6 4 3 2 2
1 1 1 1 1 1 2 1 2 2 3 5 5 4 4 4 4 3 3 3 4 4 4 4 5 7 8 9 10 10 9 11 14 17 16 16 14 12 9 7 5 3 2 2
1 1 1 1 1 1 1 1 2 2 4 5 5 4 4 4 4 4 4 4 5 5 5 5 5 7 8 10 10 9 10 12 15 17 18 17 15 11 8 7 5 3 2 2
1 1 1 1 1 1 2 2 2 2 4 4 5 5 4 4 4 4 4 5 5 6 7 6 5 6 7 8 9 9 10 11 13 15 16 16 14 10 8 6 5 3 2 1
1 1 1 1 1 1 1 2 2 3 3 4 5 5 5 4 4 4 4 4 6 7 7 7 6 5 6 7 9 9 10 11 12 14 14 13 12 11 9 7 5 2 1 1
1 1 1 1 1 1 1 2 3 3 4 4 5 6 5 3 3 3 3 4 6 7 8 9 9 8 7 8 8 9 9 11 12 13 12 11 11 10 10 8 4 2 1 0
0 1 1 1 1 1 1 2 3 5 5 6 6 7 5 3 2 2 3 4 6 7 9 11 11 10 8 8 8 7 8 10 12 13 12 11 10 9 8 6 4 2 1 1
1 1 1 1 1 1 1 2 3 5 6 7 8 7 5 3 3 2 3 4 5 5 6 8 9 8 7 6 6 6 7 8 10 13 13 12 10 8 6 4 3 2 2 1
1 1 1 1 1 1 1 2 3 4 6 8 8 7 6 5 4 4 4 5 4 4 4 4 5 5 5 5 5 5 6 7 8 11 13 12 10 8 5 4 2 2 2 1
1 1 1 1 1 2 2 2 3 4 6 9 9 8 8 8 7 6 6 6 5 4 4 4 4 5 5 5 5 6 6 6 8 10 12 10 8 6 4 3 2 2 2 2
0 1 1 1 1 2 3 4 4 4 6 9 9 9 11 11 10 9 8 8 8 8 8 7 6 6 6 6 7 7 7 8 9 11 11 8 6 4 4 3 3 3 3 3
0 0 1 1 1 2 4 5 5 5 7 8 9 11 12 11 11 10 10 9 9 9 8 8 7 7 8 7 7 8 8 8 10 10 9 6 4 3 3 4 4 4 4 3
1 1 1 1 1 2 3 3 4 4 5 7 8 9 9 8 8 8 8 7 6 5 5 5 5 6 6 6 7 7 7 7 7 6 5 4 2 2 2 2 2 2 2 2
2 1 1 1 2 2 2 2 2 2 4 5 6 6 5 5 5 6 5 4 3 2 2 2 2 2 3 4 6 7 6 5 4 3 3 2 2 1 1 1 1 1 1 1
2 2 1 1 2 2 2 2 1 2 2 3 4 4 3 3 4 4 3 2 2 1 1 1 1 0 1 3 4 5 5 4 3 3 2 2 1 1 1 0 0 0 1 1
2 1 1 2 2 2 2 2 1 2 2 2 2 3 3 3 4 3 2 1 1 1 1 1 0 0 1 2 3 3 3 3 3 3 3 2 1 1 1 1 1 1 1 1
1 1 1 2 2 2 2 2 2 2 2 2 2 2 3 4 3 2 2 1 1 1 1 1 1 1 1 2 2 2 2 2 2 3 3 2 1 1 1 1 1 1 1 1
1 1 1 1 1 2 2 2 2 3 3 3 2 2 3 3 3 2 2 1 1 1 1 1 1 1 1 1 1 2 2 2 2 2 2 2 1 1 1 1 1 1 1 1
1 1 1 1 1 1 1 2 2 3 3 3 2 2 2 2 2 2 2 2 1 1 1 1 1 1 1 1 1 1 1 1 1 1 1 1 1 1 1 1 1 1 1 1
Wind_Speed
9 6 6 7 8 9 10 11 12 9 7 4 2 3 2 2 2 3 3 3 4 4 4 4 4 4 4 4 4 4 5 5 4 4 4 4 4 4 4 4 5 4 4 5
10 8 8 9 9 10 11 11 11 10 7 2 1 2 3 3 3 3 3 3 4 4 4 5 5 4 4 4 4 4 5 4 4 4 4 4 4 3 3 3 3 4 5 5
10 9 11 13 10 10 10 10 11 10 6 3 3 3 3 3 3 3 3 3 4 4 4 4 5 5 5 4 4 4 4 4 4 4 4 4 4 3 4 4 4 4 5 5
9 9 15 5 2 6 8 8 8 7 4 4 3 3 3 3 3 3 2 2 3 3 4 4 4 5 4 4 4 5 5 5 4 4 4 4 4 4 4 4 4 4 4 5
9 12 12 7 5 6 8 8 5 5 4 3 2 4 4 1 1 1 2 2 2 3 3 3 3 4 4 5 5 5 5 5 5 5 5 5 5 4 4 4 4 4 4 5
10 12 12 4 2 4 8 8 2 3 3 3 4 7 1 1 1 2 1 1 2 2 3 3 3 4 4 5 5 6 5 5 5 5 5 5 5 4 4 4 5 5 4 4
12 12 8 1 1 5 9 2 2 1 2 3 4 5 3 2 2 2 2 1 1 2 2 3 3 4 5 5 5 5 5 5 5 6 6 6 5 4 5 5 5 4 4 4
10 12 8 2 3 4 2 2 1 1 1 2 2 2 1 1 1 2 2 1 1 2 2 2 3 4 5 5 4 4 5 5 6 6 6 5 5 5 5 5 5 5 4 4
6 4 1 1 1 1 2 1 1 1 1 1 1 1 1 2 2 1 1 2 2 3 3 2 3 4 5 4 4 5 6 6 6 6 6 5 6 6 6 6 5 4 4 4
6 5 3 2 2 1 1 2 2 2 1 2 2 2 2 2 2 2 2 2 2 3 3 3 4 4 4 4 4 5 6 6 6 6 6 5 5 5 5 5 4 4 4 4
8 6 5 4 3 3 2 2 3 2 3 3 3 3 3 3 3 4 3 3 3 4 4 4 4 4 4 4 5 6 6 6 6 6 5 5 5 4 5 4 3 4 4 4
7 5 6 5 4 4 4 4 4 4 4 4 4 4 4 3 3 4 4 4 4 5 4 4 4 4 3 4 5 6 6 6 5 5 4 4 4 4 2 3 3 3 4 5
7 7 7 6 5 5 5 5 5 5 5 4 4 4 4 4 3 4 5 5 5 5 5 4 4 4 4 4 5 6 6 5 4 4 4 5 5 4 4 3 5 6 6 6
6 7 7 6 5 4 5 5 5 5 4 4 4 3 3 3 3 4 4 5 5 5 5 4 4 4 4 4 5 6 6 5 5 4 4 4 4 4 4 4 4 4 6 8
6 7 7 5 4 4 4 4 5 4 4 4 3 3 3 3 4 4 4 4 4 4 4 4 4 3 3 4 5 6 6 4 4 4 4 3 4 4 4 4 4 4 3 4
6 6 6 6 5 4 5 5 5 4 4 4 4 4 4 4 4 4 4 4 4 5 4 4 3 3 3 4 5 5 4 3 3 4 3 3 3 3 3 3 4 4 3 3
7 6 6 6 5 5 5 5 5 5 5 5 4 3 3 4 4 3 4 4 4 3 3 3 3 2 3 4 5 4 4 4 5 5 3 3 3 3 3 3 3 3 2 1
7 6 6 6 6 6 6 5 5 5 5 5 4 4 4 4 4 4 4 4 3 3 2 2 1 2 3 4 3 3 3 3 3 3 3 3 3 3 3 3 4 3 2 3
6 6 6 6 6 6 6 6 6 5 4 4 4 4 4 4 3 3 3 3 3 3 2 1 1 3 3 3 2 3 3 3 3 3 3 3 4 3 3 3 3 3 2 2
6 6 6 7 6 6 6 6 5 4 4 4 3 3 3 3 2 2 2 3 3 2 1 1 2 3 3 3 3 3 3 3 3 3 3 3 3 3 3 3 3 3 3 3
5 5 6 6 5 5 5 5 4 4 4 3 3 3 3 3 3 3 3 3 1 1 1 2 3 3 2 2 4 3 2 3 3 3 3 3 2 3 3 3 3 3 3 3
3 4 4 4 4 4 3 3 3 3 3 3 3 3 2 2 2 2 2 1 0 0 1 2 1 1 0 2 3 3 3 3 3 2 3 3 2 2 3 3 3 2 2 2
2 2 3 3 3 3 3 3 3 2 2 3 3 3 2 2 2 2 1 0 0 1 1 1 1 2 0 2 3 3 3 3 3 2 2 2 2 3 3 3 2 2 2 2
2 2 2 2 2 2 2 2 1 1 2 2 2 2 2 2 1 1 1 2 1 1 0 2 2 1 3 3 2 2 2 2 2 2 2 2 2 2 2 2 2 2 2 2
2 1 1 1 1 1 1 1 1 1 1 1 1 1 1 0 0 1 1 2 2 1 0 2 2 2 2 2 1 1 1 1 2 2 2 2 2 2 1 1 1 2 2 2
1 0 1 0 0 0 1 1 1 1 1 1 1 2 1 1 1 1 1 1 2 1 1 1 1 1 1 1 1 1 1 1 2 2 2 2 2 2 1 1 2 2 2 2
1 1 1 1 1 1 0 1 1 1 1 1 2 2 2 2 1 1 1 1 1 1 1 1 1 1 1 1 1 1 1 1 1 1 1 1 1 1 1 2 2 2 2 2
Wind_Direction
262 272 262 254 250 238 244 264 274 277 269 271 234 221 209 197 178 176 177 179 176 179 175 183 189 191 190 189 188 194 193 199 201 209 215 220 223 227 229 235 238 234 239 242
246 243 244 254 253 249 249 255 261 264 262 260 230 192 202 205 202 196 191 191 190 191 185 189 192 194 192 195 191 190 196 202 196 202 208 216 220 223 225 229 236 230 234 243
245 239 246 246 249 250 248 250 255 260 258 214 216 217 227 228 214 215 214 207 199 196 195 196 196 192 195 198 196 197 199 201 199 203 210 217 218 213 217 221 228 227 233 241
252 239 247 259 244 256 260 257 257 263 254 248 251 250 256 243 220 221 229 219 209 206 200 199 195 190 198 194 198 202 202 203 206 208 209 213 216 216 219 221 230 234 240 245
253 247 246 233 223 241 248 253 259 255 248 247 246 233 222 176 249 256 262 256 228 221 209 200 197 194 199 206 207 211 212 213 212 212 215 214 216 219 224 232 240 243 241 246
244 256 257 242 197 250 255 239 221 256 251 247 245 249 200 72 310 296 279 261 239 221 207 197 196 203 212 219 218 220 221 222 219 215 219 221 221 224 226 230 238 246 241 245
244 251 256 347 199 225 241 271 43 277 258 249 262 318 359 319 319 300 277 254 227 215 212 203 198 205 220 229 233 232 227 225 223 219 221 221 220 224 228 231 233 241 249 251
241 249 248 103 194 240 322 30 2 290 262 264 303 349 353 347 332 316 296 277 242 218 217 212 209 214 226 232 236 238 234 228 225 224 227 214 213 222 227 230 229 227 232 243
256 258 30 115 272 353 350 349 340 292 267 250 275 314 333 337 332 328 315 281 254 239 226 225 228 231 237 239 233 232 234 230 226 226 229 222 219 221 224 223 232 233 235 242
254 242 244 237 251 254 319 312 314 317 295 258 260 276 290 304 309 308 298 285 266 256 248 244 241 238 239 237 235 234 233 229 223 223 222 219 224 224 230 233 232 236 242 250
247 253 258 230 242 260 284 285 288 291 278 270 276 270 273 283 290 290 286 278 263 255 256 255 247 242 241 233 232 236 236 230 228 225 221 218 225 236 239 242 255 251 251 253
260 262 259 255 252 262 262 263 273 279 278 272 269 269 276 277 277 279 280 278 268 263 262 262 255 244 239 232 232 237 236 231 228 224 217 221 219 223 219 233 215 232 249 259
279 287 286 274 259 260 265 269 270 265 260 256 258 260 267 274 279 275 269 266 264 263 260 259 255 245 237 238 240 241 244 240 235 226 221 225 226 228 224 209 205 219 226 229
273 272 267 256 256 266 272 272 271 267 259 254 252 252 257 264 272 268 266 263 264 265 260 256 254 247 238 237 241 242 242 231 231 227 228 227 230 235 236 239 230 220 212 212
263 258 261 260 260 264 264 263 260 258 256 245 238 239 248 256 264 272 273 266 260 260 254 252 254 254 244 235 237 239 238 233 230 234 233 234 239 238 238 237 240 237 229 196
261 259 255 247 249 253 255 256 259 260 255 248 244 247 256 262 267 270 270 257 248 252 254 254 256 258 248 243 238 236 235 234 237 241 236 231 232 238 239 242 241 231 227 228
255 253 251 250 254 257 260 263 263 256 252 251 248 247 254 258 259 267 267 258 252 257 256 252 257 249 232 233 239 238 231 210 209 226 229 231 231 235 239 240 244 238 228 206
260 260 265 264 261 260 260 262 261 254 249 253 253 242 247 253 255 261 263 259 254 248 252 246 244 250 235 230 237 243 231 224 221 218 212 218 228 225 227 230 229 236 231 182
256 256 261 265 262 256 255 257 254 252 251 247 244 243 247 253 258 261 260 249 243 241 242 236 207 228 226 224 240 233 235 229 226 225 220 205 221 228 226 226 227 227 229 226
255 254 256 259 259 253 251 250 247 245 246 243 241 242 249 252 252 250 249 252 258 270 248 220 216 223 222 215 242 238 231 236 239 232 227 225 221 225 226 222 224 222 225 229
259 254 251 252 254 254 251 246 242 245 252 241 229 234 240 242 243 238 233 241 256 283 233 197 217 214 216 217 233 242 230 233 242 241 238 233 226 225 228 227 233 238 237 238
265 260 255 254 255 260 258 248 239 242 245 232 231 233 229 235 241 240 241 266 195 155 211 184 192 113 360 245 232 242 240 240 241 245 247 246 241 242 243 237 235 239 242 243
281 268 259 252 247 250 251 246 238 233 229 225 222 218 223 243 241 229 216 58 121 117 208 112 79 95 187 234 244 250 248 249 251 252 256 257 252 248 245 243 240 230 236 234
286 272 255 243 230 229 234 234 215 211 204 199 200 207 217 212 217 224 73 100 82 126 168 90 119 174 216 226 241 252 251 250 255 261 262 261 261 260 260 254 246 238 238 235
289 273 241 208 208 216 194 174 178 160 170 159 157 167 194 157 161 75 76 92 93 142 128 104 135 192 229 253 262 265 266 284 289 279 263 261 267 269 266 266 265 253 250 246
300 118 93 104 41 262 194 193 163 126 125 111 98 81 69 71 85 123 126 125 104 72 358 73 116 174 241 294 306 298 281 245 238 247 262 268 268 267 262 262 262 260 260 262
86 99 110 109 103 105 117 107 93 82 73 82 75 63 57 52 43 53 64 73 75 63 22 24 36 34 360 338 326 314 300 291 290 298 300 299 296 287 269 261 260 261 265 262